| time (UTC) | temp F | wind direction | speed MPH | gust MPH | rain 1hr in | rain 24hr in | rain mn in | humidity % | barometer mb |
| 20260503224549 | 79 | 225 | 8.0 | 15.0 | 0.00 | 0.00 | 0.00 | 10 | 1023.6 |
| 20260503223052 | 78 | 210 | 9.0 | 16.0 | 0.00 | 0.00 | 0.00 | 12 | 1023.6 |
| 20260503221550 | 79 | 246 | 4.0 | 17.0 | 0.00 | 0.00 | 0.00 | 11 | 1023.8 |
| 20260503220056 | 78 | 261 | 8.0 | 16.0 | 0.00 | 0.00 | 0.00 | 11 | 1023.9 |
| 20260503214548 | 79 | 207 | 3.0 | 16.0 | 0.00 | 0.00 | 0.00 | 10 | 1023.9 |
| 20260503213048 | 78 | 236 | 7.0 | 20.0 | 0.00 | 0.00 | 0.00 | 13 | 1024.3 |
| 20260503211552 | 77 | 192 | 6.0 | 18.0 | 0.00 | 0.00 | 0.00 | 13 | 1024.4 |
| 20260503210052 | 77 | 200 | 8.0 | 20.0 | 0.00 | 0.00 | 0.00 | 12 | 1024.9 |
| 20260503204551 | 77 | 260 | 7.0 | 17.0 | 0.00 | 0.00 | 0.00 | 12 | 1025.0 |
| 20260503203054 | 77 | 220 | 4.0 | 14.0 | 0.00 | 0.00 | 0.00 | 12 | 1025.4 |
| 20260503201553 | 76 | 360 | 11.0 | 19.0 | 0.00 | 0.00 | 0.00 | 13 | 1025.7 |
| 20260503200050 | 76 | 200 | 7.0 | 16.0 | 0.00 | 0.00 | 0.00 | 16 | 1025.9 |
| 20260503194559 | 76 | 189 | 7.0 | 15.0 | 0.00 | 0.00 | 0.00 | 16 | 1026.0 |
| 20260503193050 | 74 | 242 | 3.0 | 13.0 | 0.00 | 0.00 | 0.00 | 16 | 1026.3 |
| 20260503191553 | 75 | 259 | 5.0 | 11.0 | 0.00 | 0.00 | 0.00 | 16 | 1026.4 |
| 20260503190055 | 74 | 282 | 5.0 | 12.0 | 0.00 | 0.00 | 0.00 | 15 | 1026.7 |
| 20260503184559 | 73 | 269 | 7.0 | 13.0 | 0.00 | 0.00 | 0.00 | 17 | 1026.8 |
| 20260503183049 | 72 | 360 | 6.0 | 13.0 | 0.00 | 0.00 | 0.00 | 17 | 1027.1 |
| 20260503181553 | 72 | 360 | 6.0 | 17.0 | 0.00 | 0.00 | 0.00 | 19 | 1027.1 |
| 20260503180109 | 71 | 360 | 3.0 | 18.0 | 0.00 | 0.00 | 0.00 | 18 | 1027.3 |
| 20260503174553 | 70 | 360 | 3.0 | 12.0 | 0.00 | 0.00 | 0.00 | 18 | 1027.4 |
| 20260503173103 | 70 | 360 | 3.0 | 9.0 | 0.00 | 0.00 | 0.00 | 20 | 1027.5 |
| 20260503171550 | 70 | 360 | 5.0 | 12.0 | 0.00 | 0.00 | 0.00 | 21 | 1027.6 |
| 20260503160107 | 66 | 263 | 3.0 | 10.0 | 0.00 | 0.00 | 0.00 | 28 | 1027.8 |
| 20260503081550 | 59 | 102 | 3.0 | 9.0 | 0.00 | 0.00 | 0.00 | 62 | 1025.5 |
| 20260503071557 | 61 | 338 | 1.0 | 5.0 | 0.00 | 0.00 | 0.00 | 39 | 1025.8 |
| 20260503060110 | 64 | 280 | 2.0 | 6.0 | 0.00 | 0.00 | 0.00 | 34 | 1026.3 |
| 20260503054617 | 64 | 260 | 4.0 | 9.0 | 0.00 | 0.00 | 0.00 | 34 | 1026.0 |
| 20260503053052 | 65 | 360 | 2.0 | 4.0 | 0.00 | 0.00 | 0.00 | 34 | 1025.7 |
| 20260503051552 | 65 | 360 | 2.0 | 6.0 | 0.00 | 0.00 | 0.00 | 33 | 1025.8 |
| 20260503050054 | 66 | 360 | 3.0 | 10.0 | 0.00 | 0.00 | 0.00 | 33 | 1025.8 |
| 20260503044556 | 66 | 360 | 5.0 | 8.0 | 0.00 | 0.00 | 0.00 | 33 | 1025.8 |
| 20260503043104 | 66 | 360 | 3.0 | 8.0 | 0.00 | 0.00 | 0.00 | 32 | 1025.7 |
| 20260503041600 | 67 | 360 | 3.0 | 9.0 | 0.00 | 0.00 | 0.00 | 31 | 1025.7 |
| 20260503040058 | 67 | 360 | 3.0 | 9.0 | 0.00 | 0.00 | 0.00 | 30 | 1025.6 |
| 20260503034559 | 67 | 360 | 2.0 | 9.0 | 0.00 | 0.00 | 0.00 | 30 | 1025.3 |
| 20260503033053 | 68 | 360 | 5.0 | 10.0 | 0.00 | 0.00 | 0.00 | 30 | 1025.2 |
| 20260503031551 | 68 | 360 | 5.0 | 11.0 | 0.00 | 0.00 | 0.00 | 29 | 1024.7 |
| 20260503030057 | 69 | 360 | 6.0 | 12.0 | 0.00 | 0.00 | 0.00 | 28 | 1024.7 |
| 20260503024553 | 69 | 360 | 5.0 | 10.0 | 0.00 | 0.00 | 0.00 | 28 | 1024.5 |
| 20260503023100 | 70 | 360 | 4.0 | 10.0 | 0.00 | 0.00 | 0.00 | 27 | 1024.4 |
| 20260503021559 | 70 | 360 | 5.0 | 10.0 | 0.00 | 0.00 | 0.00 | 28 | 1024.0 |
| 20260503020057 | 71 | 360 | 5.0 | 16.0 | 0.00 | 0.00 | 0.00 | 29 | 1023.6 |
| 20260503014549 | 72 | 360 | 5.0 | 13.0 | 0.00 | 0.00 | 0.00 | 29 | 1023.3 |
| 20260503013052 | 72 | 360 | 4.0 | 15.0 | 0.00 | 0.00 | 0.00 | 28 | 1023.1 |
| 20260503011546 | 73 | 360 | 8.0 | 17.0 | 0.00 | 0.00 | 0.00 | 27 | 1023.0 |
| 20260503010055 | 74 | 360 | 8.0 | 20.0 | 0.00 | 0.00 | 0.00 | 26 | 1022.7 |
| 20260503004559 | 75 | 360 | 9.0 | 21.0 | 0.00 | 0.00 | 0.00 | 26 | 1022.5 |
| 20260503003104 | 76 | 360 | 8.0 | 22.0 | 0.00 | 0.00 | 0.00 | 25 | 1022.2 |
| 20260503001603 | 76 | 259 | 8.0 | 19.0 | 0.00 | 0.00 | 0.00 | 25 | 1022.2 |
| 20260503000050 | 77 | 244 | 8.0 | 19.0 | 0.00 | 0.00 | 0.00 | 26 | 1022.0 |
| 20260502234552 | 77 | 239 | 10.0 | 25.0 | 0.00 | 0.00 | 0.00 | 25 | 1021.7 |
| 20260502233051 | 76 | 360 | 8.0 | 16.0 | 0.00 | 0.00 | 0.00 | 26 | 1021.7 |
| 20260502231549 | 78 | 241 | 10.0 | 18.0 | 0.00 | 0.00 | 0.00 | 25 | 1021.7 |
| 20260502230055 | 77 | 360 | 8.0 | 19.0 | 0.00 | 0.00 | 0.00 | 24 | 1021.9 |